{"data":{"norad_id":64024,"epoch":"2026-09-20T22:28:57.460224Z","epoch_age_seconds":105844,"freshness":"FRESH","line1":"1 64024U 25102C   26263.93677616  .00009921  00000+0  34900-3 0  9999","line2":"2 64024  69.9992 339.5629 0003463 271.6476  88.4302 15.29590753 75157","mean_motion":15.29590753,"eccentricity":0.0003463,"inclination_deg":69.9992,"raan_deg":339.5629,"arg_perigee_deg":271.6476,"mean_anomaly_deg":88.4302,"bstar":0.000349,"rev_number":7515,"period_min":94.142828542583,"perigee_km":474.66082893253,"apogee_km":479.40872090384,"semimajor_km":6855.1717749182,"source":"CELESTRAK","updated_at":"2026-09-21T09:00:35.186047Z"}}